BEL8ZB EBBR-EDDF

Flight info

Callsign BEL8ZB
Flight time 0h 37m
Altitude 23000
Route SPI T180 NIVNU T847 IMCOM IMCOM1D
Aircraft A319/M-DE3FGIJ1LORVWY/HB1

Departure

Time 2026-05-01 11:52
Airport Brussels Airport (EBBR)

Arrival

Time 2026-05-01 12:30
Airport Frankfurt Main Airport (EDDF)
Time Latitude Longitude Altitude Speed Heading
2026-05-01 11:27 50.90259 4.48095 118 ft 0 kts 155°
2026-05-01 11:43 50.90275 4.48082 118 ft 4 kts 149°
2026-05-01 11:43 50.90296 4.48057 117 ft 4 kts 117°
2026-05-01 11:44 50.90298 4.48030 120 ft 0 kts 65°
2026-05-01 11:46 50.90299 4.48031 120 ft 0 kts 65°
2026-05-01 11:46 50.90315 4.48052 118 ft 8 kts 33°
2026-05-01 11:46 50.90378 4.48161 121 ft 18 kts 60°
2026-05-01 11:46 50.90436 4.48353 120 ft 20 kts 65°
2026-05-01 11:47 50.90494 4.48553 120 ft 20 kts 65°
2026-05-01 11:47 50.90553 4.48758 121 ft 21 kts 65°
2026-05-01 11:47 50.90614 4.48971 118 ft 21 kts 65°
2026-05-01 11:47 50.90645 4.49128 121 ft 8 kts 129°
2026-05-01 11:48 50.90599 4.49169 121 ft 7 kts 156°
2026-05-01 11:48 50.90545 4.49207 123 ft 11 kts 156°
2026-05-01 11:48 50.90455 4.49271 122 ft 17 kts 155°
2026-05-01 11:48 50.90415 4.49396 124 ft 14 kts 92°
2026-05-01 11:49 50.90350 4.49530 124 ft 17 kts 157°
2026-05-01 11:49 50.90233 4.49502 127 ft 18 kts 194°
2026-05-01 11:49 50.90098 4.49446 130 ft 22 kts 195°
2026-05-01 11:49 50.89941 4.49381 134 ft 25 kts 194°
2026-05-01 11:50 50.89783 4.49317 144 ft 21 kts 194°
2026-05-01 11:50 50.89655 4.49265 152 ft 17 kts 197°
2026-05-01 11:50 50.89561 4.49185 157 ft 15 kts 198°
2026-05-01 11:50 50.89459 4.49144 162 ft 16 kts 194°
2026-05-01 11:51 50.89346 4.49098 166 ft 18 kts 194°
2026-05-01 11:51 50.89222 4.49049 174 ft 18 kts 194°
2026-05-01 11:51 50.89135 4.49038 177 ft 8 kts 113°
2026-05-01 11:51 50.89155 4.49133 176 ft 11 kts 66°
2026-05-01 11:52 50.89215 4.49389 176 ft 57 kts 70°
2026-05-01 11:52 50.89437 4.50352 176 ft 126 kts 70°
2026-05-01 11:52 50.89789 4.51860 480 ft 148 kts 74°
2026-05-01 11:52 50.90168 4.53362 1180 ft 147 kts 69°
2026-05-01 11:53 50.90627 4.54816 1757 ft 148 kts 68°
2026-05-01 11:53 50.91100 4.56264 2336 ft 148 kts 67°
2026-05-01 11:53 50.91576 4.57713 2871 ft 149 kts 66°
2026-05-01 11:53 50.92056 4.59177 3411 ft 151 kts 68°
2026-05-01 11:54 50.92568 4.60748 3757 ft 171 kts 67°
2026-05-01 11:54 50.93141 4.62512 4068 ft 193 kts 66°
2026-05-01 11:54 50.93750 4.64558 4365 ft 217 kts 75°
2026-05-01 11:54 50.94219 4.66963 4811 ft 241 kts 76°
2026-05-01 11:55 50.94733 4.69636 5299 ft 265 kts 76°
2026-05-01 11:55 50.95257 4.72490 6085 ft 272 kts 81°
2026-05-01 11:55 50.95349 4.75475 6989 ft 272 kts 101°
2026-05-01 11:55 50.94825 4.78326 7915 ft 269 kts 119°
2026-05-01 11:56 50.93856 4.80861 8824 ft 271 kts 124°
2026-05-01 11:56 50.92928 4.83485 9745 ft 275 kts 121°
2026-05-01 11:56 50.92044 4.86205 10555 ft 282 kts 120°
2026-05-01 11:56 50.91122 4.89094 10880 ft 306 kts 119°
2026-05-01 11:57 50.90121 4.92208 11199 ft 327 kts 120°
2026-05-01 11:57 50.89065 4.95453 11831 ft 335 kts 120°
2026-05-01 11:57 50.87980 4.98743 12579 ft 339 kts 120°
2026-05-01 11:57 50.86871 5.02065 13341 ft 343 kts 120°
2026-05-01 11:58 50.85746 5.05420 14110 ft 347 kts 120°
2026-05-01 11:58 50.84612 5.08804 14787 ft 350 kts 120°
2026-05-01 11:58 50.82303 5.15675 16122 ft 357 kts 120°
2026-05-01 11:59 50.81128 5.19150 16769 ft 361 kts 120°
2026-05-01 11:59 50.79930 5.22666 17412 ft 365 kts 120°
2026-05-01 11:59 50.78723 5.26213 18067 ft 369 kts 119°
2026-05-01 12:00 50.76274 5.33427 19264 ft 376 kts 119°
2026-05-01 12:00 50.75033 5.37080 19848 ft 379 kts 119°
2026-05-01 12:00 50.72518 5.44480 20985 ft 386 kts 119°
2026-05-01 12:01 50.71236 5.48224 21557 ft 390 kts 119°
2026-05-01 12:01 50.69942 5.51998 22105 ft 393 kts 118°
2026-05-01 12:01 50.68636 5.55799 22638 ft 396 kts 118°
2026-05-01 12:01 50.67315 5.59633 23120 ft 400 kts 118°
2026-05-01 12:02 50.65986 5.63491 23247 ft 403 kts 118°
2026-05-01 12:02 50.64638 5.67406 23281 ft 408 kts 118°
2026-05-01 12:02 50.63286 5.71334 23275 ft 408 kts 118°
2026-05-01 12:02 50.61928 5.75271 23282 ft 409 kts 118°
2026-05-01 12:03 50.60563 5.79216 23286 ft 411 kts 118°
2026-05-01 12:03 50.59193 5.83160 23277 ft 410 kts 118°
2026-05-01 12:03 50.57821 5.87098 23276 ft 410 kts 118°
2026-05-01 12:03 50.56454 5.91015 23284 ft 409 kts 118°
2026-05-01 12:04 50.55083 5.94951 23270 ft 410 kts 118°
2026-05-01 12:04 50.53716 5.98884 23268 ft 410 kts 118°
2026-05-01 12:04 50.52349 6.02809 23271 ft 410 kts 118°
2026-05-01 12:04 50.50976 6.06745 23275 ft 410 kts 118°
2026-05-01 12:05 50.49603 6.10668 23277 ft 410 kts 118°
2026-05-01 12:05 50.46859 6.18454 23265 ft 410 kts 118°
2026-05-01 12:05 50.45460 6.22425 23276 ft 410 kts 118°
2026-05-01 12:06 50.44081 6.26339 23269 ft 409 kts 118°
2026-05-01 12:06 50.42705 6.30239 23274 ft 409 kts 118°
2026-05-01 12:06 50.41340 6.34098 23266 ft 409 kts 118°
2026-05-01 12:06 50.39956 6.38001 23258 ft 410 kts 118°
2026-05-01 12:07 50.38573 6.41898 23261 ft 410 kts 118°
2026-05-01 12:07 50.37210 6.45815 23265 ft 409 kts 115°
2026-05-01 12:07 50.36184 6.49966 23276 ft 408 kts 105°
2026-05-01 12:07 50.35631 6.54318 23278 ft 408 kts 96°
2026-05-01 12:08 50.35363 6.58736 23288 ft 407 kts 95°
2026-05-01 12:08 50.35087 6.63144 23299 ft 407 kts 95°
2026-05-01 12:08 50.34800 6.67535 23308 ft 407 kts 96°
2026-05-01 12:08 50.34510 6.71948 23312 ft 406 kts 96°
2026-05-01 12:09 50.34223 6.76345 23314 ft 406 kts 95°
2026-05-01 12:09 50.33944 6.80745 23304 ft 406 kts 95°
2026-05-01 12:09 50.33530 6.85117 23320 ft 406 kts 103°
2026-05-01 12:09 50.32670 6.89322 23284 ft 406 kts 112°
2026-05-01 12:10 50.31501 6.93323 23020 ft 404 kts 114°
2026-05-01 12:10 50.29146 7.01202 22149 ft 394 kts 114°
2026-05-01 12:10 50.27988 7.05074 21641 ft 393 kts 114°
2026-05-01 12:11 50.25693 7.12764 20625 ft 388 kts 115°
2026-05-01 12:11 50.24557 7.16561 20120 ft 385 kts 115°
2026-05-01 12:11 50.23425 7.20333 19621 ft 382 kts 115°
2026-05-01 12:12 50.22298 7.24075 19123 ft 380 kts 116°
2026-05-01 12:12 50.21175 7.27793 18628 ft 378 kts 116°
2026-05-01 12:12 50.20059 7.31487 18096 ft 375 kts 116°
2026-05-01 12:12 50.19003 7.35181 17607 ft 371 kts 113°
2026-05-01 12:13 50.18065 7.38909 17125 ft 367 kts 111°
2026-05-01 12:13 50.17200 7.42629 16654 ft 363 kts 110°
2026-05-01 12:13 50.16363 7.46335 16181 ft 360 kts 110°
2026-05-01 12:13 50.15532 7.49989 15713 ft 356 kts 110°
2026-05-01 12:14 50.14691 7.53600 15257 ft 354 kts 110°
2026-05-01 12:14 50.13840 7.57192 14796 ft 352 kts 110°
2026-05-01 12:14 50.12985 7.60751 14336 ft 349 kts 111°
2026-05-01 12:14 50.12129 7.64283 13845 ft 347 kts 111°
2026-05-01 12:15 50.11290 7.67745 13629 ft 335 kts 111°
2026-05-01 12:15 50.10542 7.71058 13500 ft 322 kts 109°
2026-05-01 12:15 50.09876 7.74372 13366 ft 310 kts 107°
2026-05-01 12:15 50.09287 7.77496 13242 ft 299 kts 107°
2026-05-01 12:16 50.08722 7.80565 13085 ft 282 kts 106°
2026-05-01 12:16 50.08376 7.83528 12787 ft 277 kts 96°
2026-05-01 12:16 50.08385 7.86480 12483 ft 277 kts 86°
2026-05-01 12:16 50.08735 7.89420 12223 ft 276 kts 76°
2026-05-01 12:17 50.09376 7.92247 11948 ft 278 kts 72°
2026-05-01 12:17 50.10066 7.95069 11652 ft 278 kts 72°
2026-05-01 12:17 50.10762 7.97920 11348 ft 277 kts 72°
2026-05-01 12:17 50.11231 8.00781 11041 ft 271 kts 90°
2026-05-01 12:18 50.10993 8.03617 10695 ft 267 kts 111°
2026-05-01 12:18 50.10059 8.06070 10347 ft 263 kts 134°
2026-05-01 12:18 50.08604 8.07738 9988 ft 261 kts 156°
2026-05-01 12:18 50.06892 8.08659 9683 ft 258 kts 162°
2026-05-01 12:19 50.05175 8.09204 9550 ft 249 kts 180°
2026-05-01 12:19 50.04038 8.08889 9453 ft 245 kts 198°
2026-05-01 12:19 50.02620 8.07454 9202 ft 247 kts 225°
2026-05-01 12:19 50.01566 8.04303 8785 ft 251 kts 246°
2026-05-01 12:20 50.00945 8.01764 8471 ft 251 kts 245°
2026-05-01 12:20 50.00328 7.99232 8162 ft 250 kts 245°
2026-05-01 12:20 49.99713 7.96712 7839 ft 249 kts 245°
2026-05-01 12:20 49.99298 7.95014 7629 ft 248 kts 245°
2026-05-01 12:21 49.98419 7.92777 7308 ft 240 kts 221°
2026-05-01 12:21 49.97065 7.91371 6985 ft 232 kts 197°
2026-05-01 12:21 49.95499 7.91002 6710 ft 227 kts 174°
2026-05-01 12:21 49.93995 7.91642 6451 ft 225 kts 151°
2026-05-01 12:22 49.92770 7.93131 6196 ft 225 kts 133°
2026-05-01 12:22 49.91918 7.95159 5945 ft 226 kts 115°
2026-05-01 12:22 49.91537 7.97531 5693 ft 229 kts 97°
2026-05-01 12:22 49.91684 7.99999 5444 ft 233 kts 78°
2026-05-01 12:23 49.92239 8.02368 5191 ft 234 kts 74°
2026-05-01 12:23 49.92809 8.04733 5033 ft 234 kts 73°
2026-05-01 12:23 49.93381 8.07079 4974 ft 227 kts 73°
2026-05-01 12:23 49.93925 8.09300 4978 ft 215 kts 74°
2026-05-01 12:24 49.94450 8.11456 4986 ft 213 kts 74°
2026-05-01 12:24 49.94972 8.13599 4983 ft 212 kts 74°
2026-05-01 12:24 49.95493 8.15735 4993 ft 211 kts 74°
2026-05-01 12:24 49.96011 8.17863 4824 ft 210 kts 74°
2026-05-01 12:25 49.96527 8.19983 4553 ft 210 kts 73°
2026-05-01 12:25 49.97555 8.24216 3953 ft 210 kts 73°
2026-05-01 12:25 49.98069 8.26335 3664 ft 210 kts 72°
2026-05-01 12:26 49.98583 8.28457 3365 ft 209 kts 72°
2026-05-01 12:26 49.99592 8.32624 2773 ft 200 kts 71°
2026-05-01 12:26 50.00073 8.34613 2482 ft 192 kts 71°
2026-05-01 12:27 50.00534 8.36521 2240 ft 185 kts 73°
2026-05-01 12:27 50.01400 8.40111 1699 ft 169 kts 72°
2026-05-01 12:28 50.02164 8.43284 1264 ft 147 kts 71°
2026-05-01 12:28 50.02507 8.44711 1078 ft 139 kts 73°
2026-05-01 12:28 50.03165 8.47452 664 ft 133 kts 71°
2026-05-01 12:29 50.03482 8.48777 461 ft 132 kts 70°
2026-05-01 12:29 50.03799 8.50100 320 ft 128 kts 72°
2026-05-01 12:29 50.04231 8.51907 337 ft 58 kts 69°
2026-05-01 12:30 50.04385 8.52884 350 ft 36 kts 98°
2026-05-01 12:30 50.04359 8.53124 356 ft 14 kts 99°
2026-05-01 12:30 50.04351 8.53289 365 ft 18 kts 82°
2026-05-01 12:31 50.04390 8.53475 374 ft 16 kts 74°
2026-05-01 12:31 50.04404 8.53656 375 ft 19 kts 85°
2026-05-01 12:31 50.04419 8.53886 375 ft 24 kts 83°
2026-05-01 12:31 50.04437 8.54145 375 ft 24 kts 83°
2026-05-01 12:32 50.04454 8.54408 372 ft 25 kts 87°
2026-05-01 12:32 50.04289 8.54785 357 ft 20 kts 159°
2026-05-01 12:32 50.04150 8.54864 357 ft 20 kts 161°
2026-05-01 12:33 50.04030 8.54937 354 ft 14 kts 143°
2026-05-01 12:33 50.04032 8.55077 356 ft 15 kts 70°
2026-05-01 12:33 50.04078 8.55267 353 ft 23 kts 69°
2026-05-01 12:33 50.04143 8.55536 354 ft 29 kts 69°
2026-05-01 12:34 50.04213 8.55831 359 ft 28 kts 70°
2026-05-01 12:34 50.04281 8.56113 355 ft 27 kts 69°
2026-05-01 12:34 50.04347 8.56386 357 ft 27 kts 69°
2026-05-01 12:34 50.04409 8.56652 360 ft 26 kts 70°
2026-05-01 12:35 50.04465 8.56849 359 ft 17 kts 43°
2026-05-01 12:35 50.04579 8.56902 362 ft 18 kts 13°
2026-05-01 12:35 50.04679 8.56953 358 ft 12 kts 24°
2026-05-01 12:35 50.04737 8.56947 359 ft 6 kts 298°
2026-05-01 12:36 50.04742 8.56921 358 ft 2 kts 288°
2026-05-01 12:36 50.04749 8.56895 360 ft 2 kts 293°
2026-05-01 12:36 50.04753 8.56882 359 ft 1 kts 295°
2026-05-01 12:36 50.04753 8.56881 359 ft 0 kts 295°